Location: Banska Bystrica
(48.7330°N, 19.1500°E)
Time: 19:59:11
(UTC+02:00)

ISS - Pass Details

Date: 28 March 2019
Orbit: 408 x 410 km, 51.6° (Epoch: 25 April)

Event Time Altitude Azimuth Distance (km) Brightness Sun altitude
Rises 19:18:55 0° 268° (W) 2,334 1.5 -12.3°
Reaches altitude 10° 19:21:02 10° 273° (W) 1,473 0.3 -12.6°
Maximum altitude 19:24:16 53° 352° (N) 511 -3.2 -13.1°
Enters shadow 19:26:36 17° 66° (ENE) 1,117 -2.0 -13.5°
